Regional Weather Roundup
Issued by NWS Little Rock, AR

Home | Current Version | Previous Version | Text Only | Print | Product List | Glossary On
Versions: 1 2 3 4 5 6 7 8 9 10 11 12 13 14 15 16 17 18 19 20 21 22 23 24 25 26 27
000
ASUS44 KLZK 201305
RWRLZK

WEATHER ROUNDUP FOR ARKANSAS
NATIONAL WEATHER SERVICE LITTLE ROCK AR
800 AM CDT SUN APR 20 2014

NOTE: "FAIR" INDICATES FEW OR NO CLOUDS BELOW 12,000 FEET WITH NO
SIGNIFICANT WEATHER AND/OR OBSTRUCTIONS TO VISIBILITY.

ARZ001-003-010-029-201400-
NORTHWEST ARKANSAS

CITY           SKY/WX    TMP DP  RH WIND       PRES   REMARKS
FAYETTEVILLE   PTSUNNY   51  49  92 CALM      30.20R
FORT SMITH     PTSUNNY   59  54  83 E5        30.18R
HARRISON       PTSUNNY   56  49  77 E5        30.21R
BENTONVILLE    PTSUNNY   59  48  67 SE8       30.19S
ROGERS         PTSUNNY   59  50  72 SE7       30.20R
SILOAM SPGS    PTSUNNY   55  45  67 E6        30.19R
HIGHFILL       PTSUNNY   57  50  77 CALM      30.18R
SPRINGDALE     MOSUNNY   57  50  77 S5        30.21R
$$

ARZ004-005-016-201400-
NORTH CENTRAL ARKANSAS

CITY           SKY/WX    TMP DP  RH WIND       PRES   REMARKS
BATESVILLE     MOSUNNY   55  48  76 W3        30.21R
FLIPPIN        MOSUNNY   52  43  71 CALM      30.22R
MTN HOME       PTSUNNY   57  46  66 CALM      30.21R
$$

ARZ040-041-201400-
WEST CENTRAL ARKANSAS

CITY           SKY/WX    TMP DP  RH WIND       PRES   REMARKS
MENA           CLOUDY    55 N/A N/A CALM      30.21R
MOUNT IDA      PTSUNNY   53  51  93 CALM      30.18R
$$

ARZ009-017-025-026-028-201400-
NORTHEAST ARKANSAS

CITY           SKY/WX    TMP DP  RH WIND       PRES   REMARKS
CORNING        FAIR      57  46  67 N5        30.21S
JONESBORO      SUNNY     59  48  67 CALM      30.20R
NEWPORT        MOSUNNY   56  51  83 NW6       30.22R
WALNUT RIDGE   MOSUNNY   55  46  71 N5        30.21R
BLYTHEVILLE    MOSUNNY   58  50  75 E5        30.21R
$$

ARZ022-023-033-042-044-201400-
CENTRAL ARKANSAS

CITY           SKY/WX    TMP DP  RH WIND       PRES   REMARKS
LITTLE ROCK    PTSUNNY   58  53  84 CALM      30.21R
N LITTLE ROCK    N/A     60  53  77 CALM      30.21R
JACKSONVILLE   MOSUNNY   56  52  86 CALM      30.21R
SEARCY         SUNNY     57  51  80 NW5       30.22R
HOT SPRINGS    CLOUDY    57  53  86 CALM      30.21R
RUSSELLVILLE   CLOUDY    58  53  84 CALM      30.19R
CLINTON        FAIR      52  50  93 CALM      30.23R
$$

ARZ036-201400-
EAST ARKANSAS

CITY           SKY/WX    TMP DP  RH WIND       PRES   REMARKS
WEST MEMPHIS   SUNNY     58  52  80 SE3       30.19R
$$

ARZ050-053-066-070-073-201400-
SOUTHWEST ARKANSAS

CITY           SKY/WX    TMP DP  RH WIND       PRES   REMARKS
ARKADELPHIA    PTSUNNY   57  54  90 CALM      30.20R
CAMDEN         SUNNY     55  52  88 MISG      30.20R
TEXARKANA      MOSUNNY   63  54  72 SE5       30.18R
EL DORADO      MOSUNNY   54  52  93 CALM      30.20R
DE QUEEN       CLOUDY    55  53  93 CALM      30.17R
$$

ARZ056-057-069-201400-
SOUTHEAST ARKANSAS

CITY           SKY/WX    TMP DP  RH WIND       PRES   REMARKS
PINE BLUFF     MOSUNNY   58  55  90 CALM      30.20R
STUTTGART      MOSUNNY   61  54  77 CALM      30.21R
MONTICELLO     SUNNY     59  54  83 CALM      30.19R

$$





USA.gov is the U.S. government's official web portal to all federal, state and local government web resources and services.